{"data":{"norad_id":68418,"intl_designator":"2026-067C","name":"OPTISAT","alt_names":[],"object_type":"PAYLOAD","status":"ACTIVE","operator":null,"country":"GREC","launch_date":"2026-03-30","launch_site_code":"AFWTR","launch_vehicle":null,"mission":null,"orbit_class":"UNKNOWN","rcs_meters":null,"size_class":null,"mass_kg":null,"dimensions":null,"purposes":[],"wikipedia_slug":null,"has_3d_model":false,"image_url":null,"decayed_at":null,"tle_current":{"epoch":"2026-05-24T20:26:23.301312Z","epoch_age_seconds":83929,"freshness":"FRESH","line1":"1 68418U 26067C   26144.85165858  .00004722  00000+0  23059-3 0  9997","line2":"2 68418  97.4569 103.7371 0003495  47.5674 312.5855 15.18741804  8405","mean_motion":15.18741804,"eccentricity":0.0003495,"inclination_deg":97.4569,"raan_deg":103.7371,"arg_perigee_deg":47.5674,"mean_anomaly_deg":312.5855,"bstar":0.00023059,"rev_number":840,"period_min":94.815326489821,"perigee_km":507.23481395341,"apogee_km":512.04937153924,"semimajor_km":6887.7790927463,"source":"CELESTRAK","updated_at":"2026-05-25T13:38:07.810829Z"}}}